Probability
0 1 1 1 0 0 1 2 3 5 6 7 6 4 1 0 0 0 0 0 0 0 0 0 0 0 0 0 0 0 0 0 0 0 0 0 0 0 0 0 0 0 0
1 2 3 3 2 2 1 1 2 2 4 5 5 3 1 0 0 0 0 0 0 0 0 0 0 0 0 0 0 0 0 0 0 0 0 0 0 0 0 0 0 0 0
2 3 4 6 7 5 2 2 2 1 1 2 2 1 0 0 0 0 0 0 0 0 0 0 0 0 0 0 0 0 0 0 0 0 0 0 0 0 0 0 0 0 0
3 4 5 7 9 7 4 3 3 2 1 1 1 0 0 0 0 0 0 0 0 0 0 0 0 0 0 0 0 0 0 0 0 0 0 0 0 0 0 0 0 0 0
4 4 6 10 10 9 6 5 4 2 1 0 0 0 0 0 0 0 0 0 0 0 0 0 0 0 0 0 0 0 0 0 0 0 0 0 0 0 0 0 0 0 0
7 6 9 15 14 11 9 6 3 2 1 0 0 0 0 0 0 0 0 0 0 0 0 0 0 0 0 0 0 0 0 0 0 0 0 0 0 0 0 0 0 0 0
11 9 12 18 17 14 11 5 1 1 0 0 0 0 0 0 0 0 0 0 0 0 0 0 0 0 0 0 0 0 0 0 0 0 0 0 0 0 0 0 0 0 0
16 14 14 17 16 13 9 4 1 0 0 0 0 0 0 0 0 0 0 0 0 0 0 0 0 0 0 0 0 0 0 0 0 0 0 0 0 0 0 0 0 0 0
21 20 20 18 15 10 6 4 1 0 0 0 0 0 0 0 0 0 0 0 0 0 0 0 0 0 0 0 0 0 0 0 0 0 0 0 0 0 0 0 0 0 0
25 26 25 21 15 9 5 3 1 0 0 0 0 0 0 0 0 0 0 0 0 0 0 0 0 0 0 0 0 0 0 0 0 0 0 0 0 0 0 0 0 0 0
30 29 27 22 15 9 6 3 1 0 0 0 0 0 1 0 0 0 0 0 0 0 0 0 0 0 0 0 0 0 0 0 0 0 0 0 0 0 0 0 0 0 0
34 30 27 23 16 11 8 5 2 0 0 0 0 0 0 0 0 0 0 0 0 0 0 0 0 0 0 0 0 0 0 0 0 0 0 0 0 0 0 0 0 0 0
36 32 28 24 18 13 10 8 4 1 0 0 0 0 0 0 0 0 0 0 0 0 0 0 0 0 0 0 0 0 0 0 0 0 0 0 0 0 0 0 0 0 0
34 31 26 22 18 14 13 10 6 2 0 0 0 0 0 0 0 0 0 0 0 0 0 0 0 0 0 0 0 0 0 0 0 0 0 0 0 0 0 0 0 0 0
32 28 24 21 18 15 12 9 6 2 1 1 1 1 0 0 0 0 0 0 0 0 0 0 0 0 0 0 0 0 0 0 0 0 0 0 0 0 0 0 0 0 0
30 27 23 22 20 14 9 6 4 2 2 2 2 1 0 0 0 0 0 0 0 0 0 0 0 0 0 0 0 0 0 0 0 0 0 0 0 0 0 0 0 0 0
26 24 21 19 16 10 5 3 3 3 2 2 3 2 1 0 0 0 0 0 0 0 0 0 0 0 0 0 0 0 0 0 0 0 0 0 0 0 0 0 0 0 0
19 18 16 14 9 5 3 2 2 2 2 1 2 2 1 0 0 0 0 0 0 0 0 0 0 0 0 0 0 0 0 0 0 0 0 0 0 0 0 0 0 0 0
13 12 11 8 5 2 1 0 0 1 0 0 1 1 0 0 0 0 0 0 0 0 0 0 0 0 0 0 0 0 0 0 0 0 0 0 0 0 0 0 0 0 0
11 9 7 5 2 1 0 0 0 0 0 0 0 0 0 0 0 0 0 0 0 0 0 0 0 0 0 0 0 0 0 0 0 0 0 0 0 0 0 0 0 0 0
12 9 6 3 2 1 1 0 0 1 1 1 1 0 0 0 0 0 0 0 0 0 0 0 0 0 0 0 0 0 0 0 0 0 0 0 0 0 0 0 0 0 0
12 9 6 3 3 3 3 1 1 1 2 2 2 1 0 0 0 0 0 0 0 0 0 0 0 0 0 0 0 0 0 0 0 0 0 0 0 0 0 0 0 0 0
9 8 6 4 4 5 5 3 2 1 2 2 2 1 0 0 0 0 0 0 0 0 0 0 0 0 0 0 0 0 0 0 0 0 0 0 0 0 0 0 0 0 0
6 5 4 4 4 5 5 4 3 2 2 2 2 1 0 0 0 0 0 0 0 0 0 0 0 0 0 0 0 0 0 0 0 0 0 0 0 0 0 0 0 0 0
3 2 2 3 4 4 4 4 3 3 2 1 1 1 0 0 0 0 0 0 0 0 0 0 0 0 0 0 0 0 0 0 0 0 0 0 0 0 0 0 0 0 0
2 1 1 2 3 3 3 3 3 3 1 0 0 0 0 0 0 0 0 0 0 0 0 0 0 0 0 0 0 0 0 0 0 0 0 0 0 0 0 0 0 0 0
Wind_Speed
7 10 16 17 17 17 17 17 17 17 17 17 17 17 16 16 15 14 13 12 11 10 10 10 11 12 12 13 14 15 15 15 15 15 15 15 15 15 15 16 15 12 16
12 12 18 17 17 17 17 17 17 17 17 17 17 16 16 15 14 13 12 12 11 11 11 11 11 12 13 13 14 14 14 14 14 15 15 14 15 15 15 15 14 10 15
14 12 15 17 17 17 16 16 16 17 16 16 16 15 15 14 13 13 12 11 11 11 11 11 12 12 13 13 14 14 14 14 14 14 13 8 10 14 14 14 14 15 15
14 11 13 18 17 17 16 16 16 16 16 15 15 14 14 13 13 12 12 11 11 11 11 11 12 12 13 13 13 13 13 13 14 13 7 7 8 13 13 14 14 14 14
12 10 14 20 19 17 16 16 16 15 15 15 14 14 13 13 12 12 11 11 11 11 11 11 12 12 13 13 13 13 13 13 13 10 7 6 6 11 13 13 14 14 13
11 10 14 20 19 18 17 16 15 15 14 14 14 13 13 12 11 11 11 11 11 11 11 12 12 12 12 12 12 12 12 12 11 7 7 6 6 11 13 13 13 13 13
11 9 12 19 19 18 17 16 15 15 14 14 13 12 12 12 11 11 11 11 11 11 11 11 11 11 11 11 11 11 11 12 8 7 6 5 6 11 12 12 12 12 12
12 10 11 18 19 18 17 16 15 14 14 13 13 12 12 11 11 11 10 10 10 10 10 10 10 10 10 10 10 10 11 11 8 7 6 5 7 10 11 12 11 11 12
10 9 8 10 13 17 17 16 15 14 13 13 12 12 12 11 11 11 10 10 10 10 10 10 9 9 9 8 9 9 10 11 7 5 6 4 7 10 11 11 11 11 11
9 8 8 8 8 8 9 15 15 15 13 13 12 12 12 11 10 10 8 9 10 10 9 9 8 8 8 7 8 8 9 9 6 5 4 4 8 10 10 10 10 10 10
9 7 8 8 7 7 7 11 12 13 13 11 9 11 9 4 4 5 7 8 9 9 9 8 8 8 7 6 7 8 8 4 5 4 3 6 8 9 10 10 10 9 9
11 8 7 8 7 7 7 5 4 4 5 4 3 5 4 4 3 4 5 8 8 8 8 7 7 7 5 3 5 6 3 5 4 3 3 8 8 8 9 9 9 9 9
11 10 8 8 7 6 4 4 3 3 3 4 5 5 4 4 2 2 1 2 3 4 3 4 4 3 3 2 3 3 4 3 3 3 4 8 8 8 9 9 9 9 9
11 10 8 8 7 5 5 4 4 3 3 3 4 5 4 3 2 2 1 2 2 2 2 2 2 3 3 3 3 4 4 3 3 2 3 8 8 8 9 8 8 8 8
10 10 8 7 7 6 5 4 4 3 3 3 3 4 4 3 3 2 2 2 2 2 2 2 2 2 2 2 3 3 4 4 4 3 2 7 8 8 8 8 8 8 8
12 11 9 8 7 6 4 4 4 4 4 3 3 4 4 3 3 3 2 2 1 1 2 2 2 2 2 2 2 3 3 3 3 3 2 3 7 7 7 8 8 8 8
11 10 9 9 7 7 6 5 5 4 4 4 3 4 4 4 4 3 3 2 2 2 2 2 2 2 2 2 2 2 2 3 3 3 2 1 2 5 7 7 7 8 8
11 10 10 9 8 7 5 4 3 4 4 3 3 3 4 4 4 3 3 2 2 2 2 2 2 2 2 2 1 1 1 1 2 3 2 2 2 2 4 7 7 7 8
11 11 10 8 8 7 6 4 4 3 4 3 3 3 4 5 5 4 3 2 3 3 2 2 2 2 2 2 1 1 1 1 1 2 3 3 3 3 2 4 6 7 8
9 10 9 9 8 7 5 4 3 3 3 3 3 4 5 4 5 4 3 3 4 3 2 2 2 2 2 2 2 2 1 0 0 1 2 2 3 3 3 3 3 4 7
9 9 10 10 8 7 5 4 4 4 3 3 3 4 5 5 5 5 3 3 3 3 3 4 3 3 2 1 2 2 2 2 0 1 1 2 3 4 4 4 3 3 3
10 10 10 9 8 7 5 4 3 3 3 2 3 3 4 5 5 5 5 4 4 3 3 3 3 2 2 1 2 2 1 2 2 1 1 2 3 3 4 5 4 4 4
10 11 10 9 8 8 7 5 4 3 3 2 2 3 4 5 5 5 6 5 4 4 4 4 4 4 3 1 1 3 3 2 2 2 2 1 2 2 3 3 5 5 5
9 8 8 8 8 8 8 7 7 5 4 4 4 3 4 5 5 5 6 5 5 4 4 4 3 3 4 2 1 1 1 3 2 1 2 1 2 2 3 3 4 4 5
8 8 8 8 8 8 8 8 7 5 4 3 3 4 4 3 4 5 5 5 5 4 4 4 4 3 3 3 3 2 2 1 1 2 1 2 2 2 2 3 3 4 5
7 7 8 8 7 8 8 8 8 7 6 6 5 5 4 2 3 4 5 5 5 4 5 4 4 4 3 3 2 2 3 2 2 2 2 1 2 2 2 2 3 4 4
Wind_Direction
156 155 151 144 137 131 126 123 121 120 120 121 122 124 126 127 128 128 126 125 123 119 115 113 114 113 111 111 115 119 119 119 118 116 114 113 112 110 108 107 105 104 106
147 152 150 146 139 134 130 127 125 124 123 123 124 126 127 128 127 127 127 126 124 121 117 116 116 116 115 116 117 118 119 119 118 118 115 113 112 110 109 109 110 111 110
143 148 148 146 142 138 135 132 130 128 127 127 127 128 128 129 129 129 129 128 124 122 120 118 118 119 119 118 118 119 119 116 115 114 107 101 109 112 113 113 112 110 110
143 145 148 148 145 142 140 137 135 132 131 130 130 131 131 131 132 131 130 129 126 124 122 121 119 120 120 120 120 120 117 114 111 106 97 103 110 114 115 114 113 112 110
142 144 154 152 149 147 144 141 138 136 136 134 134 133 133 133 133 132 132 130 128 126 125 123 121 122 122 123 123 121 117 115 110 100 94 94 102 117 116 115 114 113 112
140 145 156 153 152 150 148 146 142 142 141 138 137 136 136 136 135 134 131 130 128 127 126 123 122 123 124 125 125 123 119 115 105 100 99 102 110 120 119 116 115 115 114
140 145 155 154 154 153 152 150 147 147 145 142 140 138 138 136 135 132 129 128 128 127 126 124 123 125 127 127 127 125 124 121 111 107 105 106 115 120 121 119 117 116 115
145 146 153 156 156 156 155 152 150 150 149 146 145 143 140 138 136 132 131 130 129 127 126 125 125 126 127 126 126 128 128 128 123 119 113 115 126 125 124 122 122 121 117
141 144 148 155 158 159 158 155 154 154 153 150 149 147 144 141 140 136 135 133 130 129 128 127 126 126 126 126 125 130 131 133 123 125 129 122 132 131 129 127 126 125 123
140 142 143 145 146 150 156 159 158 157 156 155 154 151 148 146 143 141 136 136 132 131 130 128 124 123 121 121 122 126 129 126 126 127 126 142 143 140 137 135 132 131 128
148 146 142 141 141 142 148 162 159 157 158 158 157 153 143 117 116 130 142 143 137 135 132 127 121 117 110 110 117 119 115 119 131 130 137 156 154 148 144 142 139 136 133
160 156 147 144 144 144 155 146 138 139 142 133 127 124 109 106 116 124 154 148 142 137 133 126 117 106 92 81 96 103 110 128 130 140 158 164 163 158 151 148 146 142 139
161 160 155 149 145 145 137 132 122 118 120 121 122 118 116 107 102 95 92 113 109 110 93 95 88 83 93 98 97 104 122 130 136 151 168 172 170 168 161 157 154 152 150
161 165 156 152 150 146 134 134 128 128 129 129 131 130 126 122 120 121 109 97 83 86 93 87 94 99 103 112 120 123 131 137 142 144 177 177 175 175 169 166 164 163 162
164 162 159 156 154 146 138 144 145 143 144 141 139 142 144 143 147 141 130 114 111 107 114 112 109 116 114 115 127 138 146 150 152 153 177 187 184 185 180 177 176 175 172
169 163 161 161 155 149 151 154 153 154 149 145 152 159 157 154 157 154 148 142 139 135 130 123 118 119 116 117 122 136 150 154 156 156 170 199 197 193 192 192 189 187 187
166 159 162 162 158 158 162 166 158 158 153 157 163 162 161 162 163 157 157 162 166 148 131 108 97 94 106 109 115 129 141 155 157 164 176 184 201 207 203 202 200 198 199
158 162 166 172 168 166 164 165 156 159 157 161 161 160 166 169 167 157 161 172 160 140 130 126 114 99 95 107 112 116 127 144 169 180 183 186 195 211 215 212 208 208 211
162 165 169 172 170 167 161 156 145 150 155 159 160 161 170 172 172 163 165 165 152 138 135 146 111 123 131 130 125 93 95 138 179 203 204 205 207 211 218 230 225 220 221
165 167 170 170 169 159 151 137 132 137 146 153 161 166 167 168 167 156 153 156 149 137 134 125 115 95 108 125 102 73 37 1 202 223 227 216 213 217 217 228 232 235 234
166 169 173 169 167 157 154 157 157 167 162 159 163 167 168 162 159 156 154 151 150 150 154 145 120 110 95 107 94 51 14 13 328 253 242 230 228 224 215 220 221 224 237
176 176 177 174 165 165 164 154 150 145 148 148 150 158 162 160 160 163 158 157 153 137 133 143 135 126 105 110 124 104 29 348 339 341 266 237 239 227 226 225 219 221 227
180 180 178 174 166 164 155 136 126 108 96 122 155 165 169 166 165 161 160 151 152 151 160 164 156 147 142 114 126 140 148 215 292 321 308 274 258 231 236 234 228 227 226
181 174 170 168 167 161 157 164 164 166 172 185 174 172 163 166 166 164 159 155 159 158 161 171 159 151 142 147 124 89 135 153 154 297 319 307 282 246 242 240 238 235 230
172 169 166 164 167 162 168 173 170 171 171 155 149 158 162 163 166 166 159 158 162 160 164 163 154 154 150 154 157 146 120 90 111 145 259 310 315 277 253 244 244 242 236
158 162 164 167 168 165 171 175 175 174 165 158 167 170 167 161 163 167 161 161 163 161 164 165 160 159 158 149 149 151 155 157 171 162 188 246 279 290 280 254 243 241 236